Regional Weather Roundup
Issued by NWS

Home | Current Version | Previous Version | Graphics & Text | Print | Product List | Glossary On
Versions: 1 2 3 4 5 6 7 8 9 10 11 12 13 14 15 16 17 18 19 20 21 22 23 24 25 26 27 28 29 30 31 32 33 34 35 36 37 38 39 40 41 42 43 44 45 46 47 48 49 50
060
ASUS45 KBOI 260810
RWRID

IDAHO REGIONAL WEATHER ROUNDUP
NATIONAL WEATHER SERVICE BOISE ID
200 AM MDT TUE JUL 26 2016

NOTE: "FAIR" INDICATES FEW OR NO CLOUDS BELOW 12000 FEET
WITH NO SIGNIFICANT WEATHER AND/OR OBSTRUCTIONS TO VISIBILITY

IDZ012-014-260900-
SOUTHWEST IDAHO


CITY           SKY/WX    TMP DP  RH WIND       PRES   REMARKS
BOISE          CLEAR     75  34  22 SE7       29.93R
CALDWELL       NOT AVBL
MOUNTAIN HOME  CLEAR     71  34  26 NW2       29.93R
$$

IDZ016-017-260900-
SOUTHCENTRAL IDAHO


CITY           SKY/WX    TMP DP  RH WIND       PRES   REMARKS
BURLEY         CLEAR     60  43  53 CALM      30.03R
JEROME         CLEAR     68  38  33 E12       30.02S
TWIN FALLS     CLEAR     68  26  20 S13       30.02S
$$

IDZ019>023-260900-
SOUTHEAST IDAHO


CITY           SKY/WX    TMP DP  RH WIND       PRES   REMARKS
IDAHO FALLS    CLEAR     62  40  44 CALM      30.09R
POCATELLO      CLEAR     56  36  47 CALM      30.08R
REXBURG        CLEAR     61  42  49 E6        30.09R
$$

IDZ006-010-011-018-031-032-260900-
CENTRAL IDAHO MOUNTAINS


CITY           SKY/WX    TMP DP  RH WIND       PRES   REMARKS
MCCALL         CLEAR     64  47  53 CALM      30.13S
HAILEY         CLEAR     61  36  39 NW10      30.16R
STANLEY        NOT AVBL
SALMON         CLEAR     59  43  55 CALM      30.08R
CHALLIS        CLEAR     63  35  35 S5        30.14R
$$

IDZ002-004-006-007-026-260900-
NORTHERN IDAHO


CITY           SKY/WX    TMP DP  RH WIND       PRES   REMARKS
LEWISTON       CLEAR     75  46  35 S3        29.92S
LOWELL           N/A     63  55  75 N3        30.00R
COEUR D`ALENE  CLEAR     64  54  68 E3        29.96S
MULLAN PASS    CLEAR     65  41  41 NW3       30.22S
$$




USA.gov is the U.S. government's official web portal to all federal, state and local government web resources and services.